Date,TemperatureHighF,TemperatureAvgF,TemperatureLowF,DewpointHighF,DewpointAvgF,DewpointLowF,HumidityHigh,HumidityAvg,HumidityLow,PressureMaxIn,PressureMinIn,WindSpeedMaxMPH,WindSpeedAvgMPH,GustSpeedMaxMPH,PrecipitationSumIn
2013-1-1,78.4,66.2,50.5,63.1,59.2,50.0,99,80,55,30.23,30.05,11,1,11,0.00
2013-1-2,80.7,67.0,56.5,68.3,62.0,55.9,99,86,58,30.09,29.98,9,0,9,0.00
2013-1-3,76.3,65.1,57.6,67.7,62.6,57.0,99,92,73,30.17,30.04,11,1,11,0.00
2013-1-4,67.4,64.4,61.2,65.1,62.5,59.5,96,94,91,30.27,30.13,9,1,9,0.01
2013-1-5,74.3,66.7,59.7,68.0,62.9,56.9,98,88,72,30.28,30.19,14,2,14,0.37
2013-1-6,78.5,69.2,61.4,71.7,67.2,61.1,99,94,79,30.22,30.07,10,1,10,0.49
2013-1-7,71.4,67.9,62.2,66.9,64.2,60.2,98,88,79,30.21,30.11,16,3,16,0.00
2013-1-8,79.3,71.7,66.5,71.7,68.5,65.9,99,90,73,30.23,30.12,10,1,10,0.30
2013-1-9,81.1,73.7,68.5,73.5,70.5,67.5,98,90,73,30.31,30.20,9,1,11,0.03
2013-1-10,79.6,72.1,63.4,70.7,67.7,62.2,99,87,66,30.33,30.23,14,1,16,0.01
2013-1-11,80.3,69.8,61.9,70.8,65.8,61.3,99,88,63,30.28,30.17,11,1,11,0.00
2013-1-12,79.5,68.7,59.7,70.7,64.8,59.1,100,89,66,30.21,30.11,12,1,12,0.01
2013-1-13,79.4,68.7,58.7,67.8,64.0,58.2,100,86,63,30.17,30.08,10,1,12,0.00
2013-1-14,79.3,68.1,57.8,68.5,64.0,57.2,99,88,67,30.20,30.13,9,0,11,0.00
2013-1-15,79.1,68.8,61.3,69.5,65.1,60.4,99,89,64,30.16,30.07,13,1,14,0.00
2013-1-16,82.5,69.1,57.5,68.2,63.5,56.9,99,84,51,30.12,30.01,11,1,11,0.00
2013-1-17,83.3,68.2,54.8,70.5,62.1,48.4,98,82,51,30.09,29.91,15,2,17,0.00
2013-1-18,69.6,58.2,44.5,60.9,51.3,38.6,93,78,64,30.26,30.09,21,4,24,0.13
2013-1-19,71.9,68.2,64.2,65.6,63.2,59.5,94,84,76,30.26,30.13,20,5,21,0.11
2013-1-20,72.0,65.7,60.3,66.9,63.1,59.7,98,92,79,30.17,30.06,13,1,14,0.00
2013-1-21,75.0,66.1,61.3,68.4,63.2,59.3,98,91,76,30.09,29.99,7,0,8,0.15
2013-1-22,68.0,60.2,50.0,59.8,51.7,45.9,94,74,53,30.28,30.04,16,1,20,0.00
2013-1-23,68.5,56.5,47.1,52.9,46.6,38.6,94,71,49,30.35,30.26,12,1,13,0.00
2013-1-24,73.0,55.4,42.0,52.6,47.4,41.2,98,78,43,30.33,30.22,10,0,12,0.00
2013-1-25,76.6,59.6,47.8,59.7,52.7,46.9,98,81,44,30.32,30.18,8,0,9,0.00
2013-1-26,76.8,59.4,46.0,58.6,52.1,45.1,98,80,40,30.29,30.17,10,1,11,0.00
2013-1-27,74.8,63.7,50.6,66.2,58.3,49.9,99,85,56,30.32,30.23,12,1,12,0.02
2013-1-28,75.1,70.6,68.0,68.4,66.1,63.6,96,86,73,30.34,30.25,11,2,13,0.01
2013-1-29,80.1,70.5,60.9,70.4,66.3,60.3,99,87,68,30.26,30.13,9,1,11,0.00
2013-1-30,83.0,72.5,63.3,67.2,64.5,62.3,98,78,52,30.13,29.92,14,2,15,0.00
2013-1-31,69.2,60.4,49.6,67.5,49.4,33.8,96,70,33,30.22,29.91,10,1,10,0.12
2013-2-1,66.6,53.5,41.9,45.5,37.6,27.5,92,57,24,30.34,30.21,12,1,13,0.00
2013-2-2,69.7,54.9,41.1,52.6,46.6,39.3,95,77,47,30.30,30.14,11,1,12,0.00
2013-2-3,72.8,57.4,46.4,50.1,46.4,39.0,97,70,40,30.20,30.06,9,0,9,0.00
2013-2-4,71.0,54.8,40.8,50.6,45.3,39.2,97,74,43,30.15,30.03,12,0,13,0.00
2013-2-5,78.1,58.2,41.9,55.7,48.9,40.3,97,75,36,30.11,30.00,8,0,8,0.00
2013-2-6,78.3,66.2,53.3,66.2,60.3,52.2,98,82,56,30.12,30.03,10,0,10,0.00
2013-2-7,81.3,69.9,58.5,67.6,63.0,56.9,98,80,54,30.09,29.90,11,1,11,0.00
2013-2-8,81.7,68.4,60.0,64.5,61.3,54.6,97,80,41,30.08,29.87,11,1,12,0.00
2013-2-9,72.2,64.6,55.4,60.9,58.5,54.3,99,82,64,30.21,30.06,14,3,15,0.01
2013-2-10,76.6,68.9,63.1,60.5,58.6,56.3,87,70,55,30.28,30.18,14,2,15,0.00
2013-2-11,82.2,70.4,59.1,65.3,62.2,57.7,98,77,47,30.23,30.09,8,1,10,0.00
2013-2-12,84.8,72.6,59.5,68.8,64.8,58.4,98,79,49,30.12,29.94,11,1,13,0.00
2013-2-13,87.2,74.7,64.7,71.2,66.6,59.0,97,78,47,29.98,29.83,17,2,17,0.00
2013-2-14,72.0,63.4,59.9,67.0,61.4,59.0,98,93,78,30.06,29.94,11,1,13,1.10
2013-2-15,70.3,61.6,56.6,61.1,58.8,56.0,98,91,70,30.07,29.96,7,1,7,0.02
2013-2-16,70.2,59.5,48.8,58.5,47.7,32.4,97,69,35,30.09,29.89,14,1,14,0.00
2013-2-17,54.1,45.0,34.8,38.8,24.2,14.4,86,47,23,30.35,30.09,17,3,19,0.00
2013-2-18,66.7,51.3,34.8,51.6,41.3,28.9,93,71,48,30.36,30.23,15,1,16,0.00
2013-2-19,79.5,63.3,47.5,59.9,53.1,45.5,97,73,42,30.23,30.06,13,1,14,0.00
2013-2-20,72.5,63.1,52.8,62.9,58.2,51.4,98,85,67,30.14,30.03,14,2,14,0.00
2013-2-21,80.4,69.3,59.0,67.4,63.6,58.0,99,84,58,30.11,30.02,12,1,12,0.00
2013-2-22,81.3,71.4,60.1,72.1,67.7,59.5,99,89,69,30.11,30.01,11,1,11,0.00
2013-2-23,87.7,74.9,64.0,71.7,67.0,62.5,99,79,44,30.05,29.88,12,1,16,0.00
2013-2-24,85.0,72.0,67.2,71.2,67.7,66.3,98,87,55,29.98,29.89,14,2,14,0.00
2013-2-25,86.7,75.1,66.8,73.5,68.2,62.8,99,81,47,29.93,29.79,10,1,12,0.00
2013-2-26,84.4,75.4,66.0,72.8,69.4,63.5,94,83,57,29.87,29.75,20,2,20,0.01
2013-2-27,76.8,66.8,57.9,63.6,59.6,52.0,98,79,52,29.97,29.86,9,1,9,0.00
2013-2-28,76.0,62.6,50.3,52.8,48.8,41.2,94,64,33,30.01,29.87,10,1,11,0.00
2013-3-1,64.5,56.9,51.2,50.5,44.4,36.7,88,65,37,29.99,29.90,11,1,11,0.00
2013-3-2,60.8,52.2,39.6,43.0,36.7,30.0,85,57,33,30.04,29.94,17,1,17,0.00
2013-3-3,57.9,45.8,34.4,37.5,33.4,30.2,90,64,39,30.17,29.97,19,2,19,0.00
2013-3-4,62.2,47.0,31.0,42.2,33.6,24.4,96,66,26,30.25,30.13,13,1,13,0.00
2013-3-5,78.9,59.5,40.0,53.3,45.6,38.9,98,66,26,30.20,30.03,12,1,14,0.00
2013-3-6,72.2,61.1,46.9,61.2,42.1,21.3,95,57,15,30.13,29.94,15,2,16,0.02
2013-3-7,65.8,52.4,42.7,49.1,42.1,34.2,95,69,48,30.20,30.10,12,2,13,0.00
2013-3-8,70.0,55.6,42.3,52.4,47.1,41.6,98,76,39,30.23,30.14,13,2,14,0.00
2013-3-9,71.2,59.5,45.8,55.5,50.8,44.7,98,75,50,30.23,30.13,18,2,18,0.00
2013-3-10,75.2,63.9,52.0,59.0,55.0,50.3,96,75,47,30.19,30.10,18,2,18,0.00
2013-3-11,77.0,66.6,54.1,62.7,58.2,53.0,98,76,48,30.13,29.95,11,1,12,0.00
2013-3-12,75.4,68.4,59.9,69.6,64.2,57.4,96,87,79,30.01,29.88,11,1,14,0.18
2013-3-13,71.3,59.6,49.1,57.7,48.9,41.0,97,72,35,30.16,30.00,18,2,18,0.01
2013-3-14,63.9,54.6,45.9,47.8,42.0,34.3,88,64,42,30.24,30.13,18,3,19,0.00
2013-3-15,67.7,53.3,38.6,45.6,42.4,37.5,97,71,36,30.28,30.16,13,1,13,0.00
2013-3-16,78.8,60.0,41.1,54.8,47.7,40.3,99,69,30,30.21,30.06,9,1,12,0.00
2013-3-17,79.7,64.2,46.6,60.1,54.2,45.5,97,73,43,30.17,30.02,9,1,11,0.00
2013-3-18,80.3,71.3,62.4,66.9,63.1,58.7,94,76,57,30.08,29.89,15,1,15,0.01
2013-3-19,85.2,70.7,61.9,66.8,64.1,60.9,98,82,48,30.01,29.89,13,1,13,0.00
2013-3-20,79.5,73.4,62.5,68.7,62.7,57.6,95,70,60,29.97,29.79,11,2,11,0.00
2013-3-21,73.0,60.1,48.8,57.7,45.0,28.0,97,64,20,29.97,29.83,13,1,13,0.00
2013-3-22,72.6,51.5,42.2,63.5,45.7,0.0,98,84,43,30.03,29.91,11,1,11,0.01
2013-3-23,88.8,75.5,65.0,73.6,67.9,63.5,98,80,44,30.00,29.75,17,1,19,0.00
2013-3-24,88.5,73.0,66.2,72.8,68.4,63.2,97,87,52,29.88,29.64,28,2,28,0.46
2013-3-25,75.3,67.6,54.8,69.9,49.6,27.9,98,61,18,30.02,29.73,15,2,15,0.01
2013-3-26,63.7,54.6,45.3,41.9,31.7,22.7,68,44,21,30.23,30.02,16,2,20,0.00
2013-3-27,65.0,50.2,38.1,43.2,36.9,29.7,90,64,28,30.29,30.19,12,1,12,0.00
2013-3-28,67.1,53.9,40.7,46.3,41.0,30.6,94,66,30,30.30,30.19,15,2,15,0.00
2013-3-29,70.8,58.1,45.1,50.9,45.4,38.8,96,67,33,30.33,30.22,14,2,16,0.00
2013-3-30,76.3,61.5,46.1,55.2,50.8,45.0,97,71,42,30.27,30.15,12,1,13,0.00
2013-3-31,83.0,68.2,52.4,64.8,57.1,50.7,96,71,38,30.20,30.01,13,1,15,0.00
2013-4-1,86.5,72.8,61.8,68.8,63.2,58.6,98,75,41,30.05,29.91,15,1,15,0.00
2013-4-2,79.3,70.1,60.6,65.1,61.7,55.7,98,77,46,30.09,30.00,14,2,17,0.00
2013-4-3,83.3,73.6,62.7,70.6,66.0,59.4,97,79,48,30.08,29.98,14,1,14,0.00
2013-4-4,74.4,70.1,65.2,71.6,68.1,63.7,97,94,89,30.06,29.88,11,1,14,0.42
2013-4-5,76.9,67.7,61.6,71.4,64.8,58.3,98,91,75,29.97,29.80,13,2,13,0.30
2013-4-6,74.7,66.1,54.3,63.2,58.8,52.9,95,78,59,30.13,29.97,19,3,19,0.00
2013-4-7,78.2,69.7,59.1,62.1,60.1,57.4,96,73,52,30.17,30.06,14,2,14,0.00
2013-4-8,80.2,69.5,56.9,66.2,61.4,56.0,98,78,49,30.15,30.07,13,2,17,0.00
2013-4-9,81.3,72.0,63.7,68.0,64.3,60.4,98,78,57,30.19,30.08,16,2,17,0.00
2013-4-10,82.8,72.2,60.1,71.7,66.8,59.2,98,84,63,30.14,30.01,14,1,15,0.00
2013-4-11,85.3,77.3,71.4,73.1,71.2,69.9,95,82,65,30.02,29.87,11,2,13,0.00
2013-4-12,90.0,80.1,73.8,74.9,71.5,67.0,93,77,51,29.93,29.82,18,2,18,0.00
2013-4-13,86.3,74.9,70.4,73.5,69.0,65.9,95,83,59,30.00,29.89,15,2,15,0.00
2013-4-14,86.0,76.6,67.3,75.7,72.1,65.2,96,86,67,30.00,29.84,13,2,14,1.10
2013-4-15,83.0,74.2,65.4,71.0,67.6,64.6,98,81,60,30.08,29.93,11,1,14,0.00
2013-4-16,82.0,75.9,69.4,73.4,70.0,67.8,98,83,67,30.15,30.04,17,4,18,0.00
2013-4-17,80.8,73.7,64.0,69.6,66.8,62.8,98,80,60,30.14,30.05,17,2,17,0.00
2013-4-18,84.8,76.6,65.4,73.3,69.4,63.5,97,79,64,30.08,29.98,12,1,14,0.00
2013-4-19,92.0,78.5,69.3,75.5,70.9,66.8,97,80,47,30.05,29.92,17,1,17,1.62
2013-4-20,74.3,70.0,65.9,73.7,67.2,62.0,99,91,80,30.13,29.97,15,2,17,0.01
2013-4-21,80.5,71.7,64.0,72.8,67.6,61.5,97,87,74,30.13,30.00,15,2,16,0.01
2013-4-22,78.2,71.6,67.8,70.5,68.2,64.8,98,89,74,30.08,29.98,18,2,18,0.10
2013-4-23,78.2,71.3,64.1,68.8,64.7,61.8,98,81,59,30.12,30.00,19,3,19,0.01
2013-4-24,80.8,70.9,60.0,67.4,62.6,59.0,98,77,56,30.16,30.07,15,1,15,0.00
2013-4-25,82.5,72.6,61.6,67.8,63.7,59.9,97,76,53,30.20,30.09,13,1,13,0.00
2013-4-26,81.5,73.2,63.0,69.8,65.7,61.8,98,79,56,30.24,30.15,13,2,15,0.00
2013-4-27,81.3,73.5,66.9,70.7,66.9,64.1,94,80,58,30.23,30.13,12,2,14,0.04
2013-4-28,81.8,74.5,67.4,67.3,64.7,62.5,87,72,58,30.15,30.02,12,1,13,0.00
2013-4-29,84.5,74.5,64.3,71.1,67.1,62.8,97,79,55,30.05,29.92,11,1,13,0.02
2013-4-30,83.2,74.6,69.0,72.8,69.6,67.1,95,85,70,30.01,29.94,15,1,15,0.00
2013-5-1,80.5,71.2,66.3,72.3,68.3,65.3,98,91,71,30.02,29.94,13,1,13,0.34
2013-5-2,78.0,71.8,66.2,72.3,68.6,64.5,97,90,78,29.97,29.83,14,1,15,1.63
2013-5-3,84.7,74.6,68.1,72.3,68.8,67.2,98,83,58,29.85,29.65,13,1,13,0.11
2013-5-4,85.0,74.6,67.2,69.4,67.9,65.8,96,81,56,29.80,29.68,12,1,13,0.00
2013-5-5,79.9,71.2,61.9,68.5,55.4,42.8,97,63,29,29.94,29.75,12,1,12,0.00
2013-5-6,81.9,69.6,56.3,64.4,56.1,49.6,95,65,39,30.00,29.90,15,1,18,0.00
2013-5-7,81.7,69.1,52.6,59.2,55.7,51.2,95,65,41,30.06,29.96,15,1,15,0.00
2013-5-8,83.8,71.0,56.8,64.3,59.5,55.4,96,70,40,30.14,30.03,9,1,10,0.00
2013-5-9,82.0,72.0,59.5,69.2,63.9,57.8,96,77,56,30.16,30.08,11,1,12,0.00
2013-5-10,87.3,76.3,64.8,75.6,69.7,63.6,98,81,58,30.14,30.02,13,1,14,0.09
2013-5-11,91.5,76.4,68.8,74.2,70.3,66.8,97,83,47,30.07,29.95,11,1,13,0.47
2013-5-12,90.0,76.8,68.3,76.2,71.2,67.7,98,85,54,30.04,29.94,10,1,11,0.07
2013-5-13,81.3,72.4,66.9,69.1,64.5,56.1,97,78,57,30.13,29.99,14,2,16,0.01
2013-5-14,78.8,70.0,58.1,60.5,57.2,53.7,95,66,47,30.20,30.11,15,2,16,0.00
2013-5-15,80.1,70.5,58.0,65.1,60.2,56.2,96,72,48,30.22,30.12,13,1,16,0.00
2013-5-16,83.0,72.3,59.7,67.4,62.3,58.6,97,73,49,30.14,30.05,14,1,14,0.00
2013-5-17,83.4,71.5,63.1,69.0,65.4,61.6,96,82,61,30.11,30.03,11,0,14,0.00
2013-5-18,84.7,76.4,67.0,75.0,70.7,65.5,97,83,66,30.12,30.04,15,1,16,0.71
2013-5-19,84.7,75.7,70.3,74.1,71.0,68.6,96,86,62,30.11,30.02,11,1,11,0.15
2013-5-20,84.1,75.7,69.0,74.2,70.5,67.4,98,85,60,30.09,30.01,12,1,12,0.00
2013-5-21,82.8,74.4,69.7,74.9,71.3,68.3,97,90,68,30.04,29.96,13,1,13,1.00
2013-5-22,82.7,74.4,67.2,75.4,71.1,66.4,98,90,73,29.99,29.91,15,1,15,0.25
2013-5-23,88.8,77.1,68.2,75.5,71.7,67.6,98,85,57,30.00,29.92,12,1,12,0.01
2013-5-24,93.3,79.2,66.9,76.1,69.8,61.7,98,76,37,30.09,29.96,14,1,14,0.01
2013-5-25,84.0,77.9,71.7,72.6,65.5,58.4,91,67,44,30.20,30.07,18,4,19,0.00
2013-5-26,81.2,73.9,61.4,66.2,62.2,58.5,91,68,54,30.22,30.15,13,2,13,0.00
2013-5-27,82.8,76.1,66.9,69.4,65.8,61.6,83,71,60,30.19,30.12,17,3,18,0.00
2013-5-28,82.8,78.0,74.4,75.3,71.4,68.0,90,80,73,30.15,30.09,16,3,17,0.06
2013-5-29,80.4,76.2,71.5,75.3,72.8,69.4,96,89,81,30.16,30.06,23,2,23,1.19
2013-5-30,83.8,78.7,74.7,75.3,72.2,67.5,93,81,62,30.13,30.05,18,3,19,0.07
2013-5-31,84.0,79.3,75.9,74.5,72.0,69.0,88,79,70,30.11,30.05,23,3,23,0.00
2013-6-1,85.7,79.1,75.7,76.6,74.1,71.4,95,85,72,30.08,29.98,14,2,14,0.16
2013-6-2,88.8,79.4,72.8,77.9,74.8,70.9,98,87,64,30.02,29.90,14,1,14,1.26
2013-6-3,90.6,78.5,71.7,76.7,74.1,71.1,98,88,58,30.02,29.90,14,1,14,0.28
2013-6-4,84.4,78.0,73.3,75.4,73.0,70.3,98,85,65,30.05,29.95,11,0,11,0.02
2013-6-5,86.3,78.5,73.6,76.7,74.5,72.1,97,88,71,30.03,29.92,12,1,12,0.03
2013-6-6,81.8,75.8,72.9,78.5,74.0,70.7,97,94,88,29.93,29.72,18,2,18,2.44
2013-6-7,90.5,80.8,73.3,77.1,74.2,71.7,97,82,62,29.96,29.79,12,2,12,0.00
2013-6-8,89.8,77.7,71.9,78.5,73.7,71.0,97,88,59,30.10,29.96,10,0,11,0.18
2013-6-9,88.3,78.9,71.1,77.8,74.1,70.5,99,86,64,30.12,30.05,10,1,12,0.01
2013-6-10,89.3,80.9,74.9,79.0,75.8,73.6,97,85,67,30.10,30.03,12,1,12,0.01
2013-6-11,89.5,79.2,72.9,80.3,74.9,68.0,98,87,63,30.10,30.01,9,0,11,1.27
2013-6-12,93.7,80.2,70.3,78.8,73.1,69.4,98,81,47,30.08,30.01,11,1,11,0.00
2013-6-13,94.0,80.9,71.3,78.7,73.2,70.1,97,79,52,30.05,29.91,9,1,9,0.02
2013-6-14,93.8,83.4,73.7,76.9,73.4,69.2,97,74,47,29.95,29.84,13,1,13,0.00
2013-6-15,88.3,80.5,73.1,78.7,74.8,71.5,96,83,65,30.08,29.92,17,2,21,0.06
2013-6-16,88.3,82.4,77.1,77.3,75.7,74.5,92,81,68,30.09,30.04,13,2,13,0.00
2013-6-17,95.4,84.1,76.0,78.3,75.8,68.7,95,78,44,30.09,29.99,8,1,9,0.00
2013-6-18,95.7,83.9,74.1,78.1,74.6,71.0,97,76,47,30.07,29.96,8,1,8,0.02
2013-6-19,93.0,81.4,71.1,76.7,72.6,65.7,95,76,53,30.06,29.96,12,1,13,0.02
2013-6-20,89.3,78.4,72.1,78.3,73.4,69.0,96,85,64,30.11,30.02,10,0,10,1.22
2013-6-21,86.7,75.7,70.0,77.2,72.8,69.0,98,91,72,30.14,30.04,7,0,8,0.19
2013-6-22,86.3,76.1,71.4,78.4,73.2,70.8,99,91,68,30.12,30.06,7,0,9,0.00
2013-6-23,85.3,78.2,73.0,78.3,74.6,72.1,97,89,74,30.16,30.07,10,0,11,0.29
2013-6-24,88.3,81.0,72.2,77.5,74.5,71.3,98,82,65,30.19,30.10,13,1,14,0.00
2013-6-25,87.8,81.0,72.6,77.8,74.1,71.4,97,81,61,30.16,30.05,14,2,17,0.00
2013-6-26,89.5,78.2,73.9,78.3,75.2,72.1,97,91,64,30.10,30.02,12,0,12,0.68
2013-6-27,92.0,81.1,71.6,78.6,74.4,71.0,99,81,55,30.06,29.93,10,1,10,0.00
2013-6-28,94.5,79.7,71.3,76.8,73.2,68.1,97,82,53,29.99,29.84,16,1,18,0.74
2013-6-29,93.0,79.4,72.7,78.0,74.1,70.7,97,85,54,29.90,29.82,7,1,15,0.30
2013-6-30,89.7,77.3,73.3,78.4,74.3,71.5,98,91,67,29.93,29.84,12,1,17,0.78
2013-7-1,88.3,76.3,72.5,78.6,73.8,71.1,98,93,65,30.05,29.89,12,1,15,0.76
2013-7-2,87.5,76.5,72.8,79.8,74.7,72.2,98,94,76,30.13,29.99,14,0,14,0.78
2013-7-3,87.9,79.9,73.4,79.1,75.3,72.3,99,87,70,30.15,30.07,12,1,13,0.01
2013-7-4,89.0,80.7,72.9,77.3,74.7,71.4,98,83,65,30.17,30.09,14,1,14,0.01
2013-7-5,88.2,81.0,75.3,78.0,75.3,72.8,94,83,65,30.17,30.08,15,1,16,0.08
2013-7-6,87.0,82.4,76.4,78.4,75.5,72.9,90,80,70,30.15,30.07,10,1,13,0.14
2013-7-7,87.0,81.2,74.0,77.3,75.3,72.7,96,83,68,30.14,30.06,18,2,18,0.00
2013-7-8,87.8,81.3,74.1,77.4,74.9,72.9,97,82,64,30.17,30.10,16,2,16,0.00
2013-7-9,85.3,79.6,73.1,78.0,74.0,71.6,98,84,69,30.18,30.08,15,2,15,0.00
2013-7-10,87.0,80.5,72.5,77.7,73.7,71.0,98,81,65,30.09,29.99,12,1,13,0.00
2013-7-11,92.3,79.6,73.3,79.2,74.1,71.5,97,85,55,30.06,29.93,9,1,12,1.06
2013-7-12,92.5,79.7,71.5,77.8,73.8,70.4,99,84,53,29.97,29.88,8,1,10,0.06
2013-7-13,87.5,76.0,71.6,77.4,73.4,70.7,98,92,66,30.02,29.92,11,0,12,0.18
2013-7-14,85.0,75.0,69.7,77.6,72.8,69.1,99,93,74,30.11,29.99,10,1,11,0.40
2013-7-15,84.2,76.9,70.0,77.0,73.3,69.3,99,89,73,30.13,30.04,14,2,14,0.00
2013-7-16,85.8,78.3,73.8,77.3,74.0,71.9,97,87,71,30.17,30.09,17,2,19,0.40
2013-7-17,84.8,78.3,73.6,77.5,74.6,71.4,97,89,75,30.16,30.08,18,2,18,0.06
2013-7-18,85.7,78.4,73.6,76.2,74.2,72.3,98,88,70,30.14,30.06,11,1,11,0.02
2013-7-19,88.5,78.8,72.7,79.4,74.6,71.4,98,88,69,30.14,30.04,11,1,11,0.06
2013-7-20,87.0,77.7,73.3,80.2,75.1,71.2,98,92,77,30.13,30.03,9,0,13,1.14
2013-7-21,91.5,77.7,72.3,79.5,74.3,70.4,98,90,64,30.15,30.04,9,1,11,0.62
2013-7-22,93.6,79.0,71.7,78.6,74.3,69.9,98,87,54,30.15,30.06,15,1,17,1.41
2013-7-23,91.8,80.2,72.0,80.4,74.9,71.7,99,86,56,30.10,29.99,13,1,13,0.01
2013-7-24,90.5,78.6,73.6,77.7,75.0,71.4,97,89,62,30.01,29.90,13,1,13,0.28
2013-7-25,84.3,78.4,72.6,78.8,75.5,71.1,98,91,82,29.99,29.88,10,1,16,0.74
2013-7-26,87.9,80.0,74.2,78.9,75.6,72.9,98,87,71,30.01,29.95,12,1,13,0.15
2013-7-27,91.4,81.3,72.9,78.2,75.8,72.0,98,85,58,30.00,29.91,10,0,10,0.03
2013-7-28,91.5,81.9,75.8,78.3,75.2,71.1,97,81,56,30.07,29.94,11,0,12,0.28
2013-7-29,89.4,80.9,73.3,80.1,75.7,72.4,98,85,67,30.16,30.03,8,0,10,0.00
2013-7-30,89.3,81.6,74.1,79.9,76.4,73.2,98,85,67,30.18,30.10,14,1,14,0.00
2013-7-31,90.5,82.5,75.4,79.8,76.4,73.3,98,83,61,30.14,30.02,11,1,12,0.01
2013-8-1,90.7,81.6,74.0,78.5,75.3,72.6,97,82,59,30.08,29.96,10,1,10,0.00
2013-8-2,87.8,80.4,73.3,79.0,74.7,72.1,98,84,67,30.03,29.94,19,2,19,0.00
2013-8-3,88.7,78.4,72.0,79.3,74.6,70.2,97,89,70,30.12,30.00,15,1,19,0.54
2013-8-4,93.8,82.3,74.2,80.4,76.6,73.5,98,84,58,30.09,29.99,12,1,12,0.01
2013-8-5,94.0,80.9,74.6,80.1,76.3,73.0,97,87,56,30.03,29.93,12,1,12,0.72
2013-8-6,90.4,81.3,72.6,78.9,75.7,71.7,98,84,64,29.98,29.90,10,1,11,0.01
2013-8-7,90.1,83.3,76.0,79.5,76.9,74.3,95,82,65,29.99,29.92,12,1,14,0.00
2013-8-8,91.2,83.4,76.0,78.8,76.2,73.5,96,80,59,30.05,29.95,12,1,13,0.00
2013-8-9,90.1,83.0,77.5,78.2,75.3,71.7,92,78,62,30.08,29.98,14,1,15,0.00
2013-8-10,92.4,82.8,74.0,79.0,75.4,71.8,96,80,54,30.14,30.06,12,1,12,0.00
2013-8-11,91.2,82.3,75.2,79.7,75.8,72.5,98,82,60,30.16,30.09,11,1,12,0.00
2013-8-12,89.5,80.8,72.1,78.2,73.6,66.1,97,80,48,30.13,30.03,11,1,12,0.00
2013-8-13,94.5,82.8,72.9,78.7,75.5,71.7,97,80,54,30.07,29.94,13,1,13,0.00
2013-8-14,95.5,83.8,75.7,79.4,75.4,71.9,95,77,50,30.04,29.91,9,1,9,0.00
2013-8-15,90.8,82.6,75.7,79.3,76.0,73.4,95,82,62,30.05,29.95,7,0,7,0.20
2013-8-16,94.7,82.9,76.5,78.0,75.6,72.3,96,81,51,30.06,29.98,11,0,11,0.00
2013-8-17,92.0,82.8,77.1,79.9,77.3,75.0,97,84,61,30.10,30.01,10,1,11,0.00
2013-8-18,88.5,81.2,75.4,79.0,76.8,73.7,97,87,70,30.11,30.02,12,1,15,0.06
2013-8-19,92.3,84.1,76.7,79.5,76.8,73.4,97,80,55,30.10,29.98,12,1,14,0.00
2013-8-20,91.0,82.6,0.0,77.8,74.0,0.0,93,73,61,30.10,30.04,13,2,15,0.00
2013-8-21,90.0,82.1,76.3,79.7,76.8,73.3,97,85,66,30.12,30.04,14,2,18,0.40
2013-8-22,89.6,81.4,76.3,80.4,77.4,75.4,98,88,69,30.10,29.99,13,1,15,0.09
2013-8-23,89.3,81.6,75.9,79.0,76.8,74.5,97,86,65,30.03,29.96,14,1,15,0.00
2013-8-24,91.7,80.7,75.2,79.7,75.6,72.2,97,85,58,30.11,30.00,19,1,19,0.60
2013-8-25,83.3,78.1,74.0,78.2,75.4,72.1,97,91,80,30.18,30.08,11,1,12,0.41
2013-8-26,88.1,79.9,74.0,78.7,75.0,72.7,97,86,63,30.15,30.02,16,2,16,0.16
2013-8-27,87.0,79.5,73.3,74.4,72.3,70.3,97,80,60,30.07,30.00,18,2,18,0.00
2013-8-28,86.9,79.1,71.0,75.1,72.3,69.4,96,81,63,30.07,29.99,13,1,14,0.00
2013-8-29,89.1,80.7,73.2,77.0,74.0,71.4,95,81,61,30.04,29.95,12,0,13,0.01
2013-8-30,91.1,80.3,72.7,78.2,74.2,71.5,97,83,60,30.00,29.91,10,0,11,0.06
2013-8-31,94.3,80.4,70.3,77.0,72.9,68.1,96,80,47,30.00,29.89,20,1,20,0.66
2013-9-1,93.7,78.3,71.6,77.9,73.4,70.7,98,87,52,30.01,29.92,11,0,12,0.27
2013-9-2,92.5,78.6,71.4,79.4,73.4,70.4,98,86,55,30.03,29.94,9,0,9,0.01
2013-9-3,90.4,78.3,71.8,77.5,74.0,70.6,97,88,63,30.03,29.94,11,0,11,0.59
2013-9-4,89.8,80.3,73.5,79.9,75.7,72.6,98,87,60,30.09,29.98,11,0,11,0.01
2013-9-5,90.0,82.6,75.9,80.2,76.7,73.9,96,83,64,30.10,30.01,13,1,15,0.00
2013-9-6,92.3,81.3,74.9,79.1,76.1,73.7,97,85,58,30.05,29.95,16,1,16,0.04
2013-9-7,87.5,79.6,74.5,78.3,74.8,73.0,96,86,66,30.01,29.92,7,1,10,0.01
2013-9-8,88.1,79.9,73.0,77.6,73.7,71.1,97,82,59,29.97,29.88,14,2,15,0.00
2013-9-9,87.8,80.0,72.8,76.5,73.9,71.6,97,83,63,30.03,29.92,14,2,15,0.60
2013-9-10,86.3,79.9,72.7,76.5,73.2,69.7,97,81,61,30.09,29.99,18,3,22,0.17
2013-9-11,86.5,80.0,73.3,76.7,74.6,69.5,96,84,65,30.09,30.00,17,2,18,0.00
2013-9-12,88.5,79.0,73.6,77.0,74.1,72.4,97,85,60,30.02,29.90,8,0,8,0.00
2013-9-13,90.5,79.7,72.9,77.0,74.1,71.7,97,84,58,29.92,29.80,10,0,11,0.00
2013-9-14,90.0,79.8,72.8,79.6,75.3,71.6,97,87,61,29.98,29.83,14,0,15,0.29
2013-9-15,87.8,78.3,72.7,79.5,75.4,71.4,96,91,73,30.09,29.95,16,1,16,1.40
2013-9-16,87.0,78.0,71.5,78.1,73.7,70.3,98,87,69,30.08,29.99,16,2,16,0.01
2013-9-17,84.6,78.3,73.2,77.5,74.3,71.7,96,88,76,30.07,29.96,19,2,19,0.05
2013-9-18,84.7,78.4,74.3,77.8,74.7,71.5,96,88,73,30.03,29.95,19,2,21,0.57
2013-9-19,86.3,80.3,74.2,76.6,73.5,69.4,95,80,65,30.04,29.96,17,3,18,0.00
2013-9-20,85.0,78.2,71.0,72.5,69.9,67.6,95,77,58,30.03,29.92,16,2,18,0.00
2013-9-21,89.2,78.4,69.9,73.8,71.2,68.7,97,80,57,29.94,29.78,10,1,10,0.01
2013-9-22,91.4,79.5,72.0,77.9,73.1,69.9,95,82,55,29.86,29.75,8,1,13,0.00
2013-9-23,89.4,77.2,72.6,78.2,73.9,71.1,97,90,63,29.99,29.84,7,0,7,1.99
2013-9-24,86.0,77.7,73.9,79.4,75.0,71.3,98,92,75,29.97,29.85,10,1,11,0.06
2013-9-25,85.7,78.0,73.0,75.0,72.4,70.2,96,84,61,29.86,29.79,14,1,15,0.00
2013-9-26,91.6,80.7,74.2,78.4,74.3,70.9,96,82,52,29.85,29.76,13,2,14,0.00
2013-9-27,84.6,75.2,70.1,75.7,71.5,68.6,96,89,67,29.94,29.83,18,1,18,0.15
2013-9-28,85.0,77.0,71.3,76.6,71.6,68.5,97,84,66,30.00,29.90,15,2,17,0.66
2013-9-29,85.8,77.6,70.7,73.1,70.7,67.9,95,80,63,29.98,29.90,13,2,13,0.00
2013-9-30,88.0,77.0,67.8,74.4,70.6,66.5,97,82,57,30.02,29.92,11,1,11,0.00
2013-10-1,85.3,78.4,70.5,75.5,72.0,69.0,96,81,67,30.06,29.97,14,2,17,0.00
2013-10-2,84.4,78.4,70.9,73.9,71.3,69.2,96,79,64,30.06,29.99,16,2,16,0.00
2013-10-3,86.3,76.9,68.3,74.1,70.5,66.8,97,82,59,30.07,29.98,11,1,13,0.00
2013-10-4,86.0,76.0,69.9,74.6,70.9,68.6,97,85,65,30.08,30.01,11,0,12,0.00
2013-10-5,86.3,78.0,70.5,75.3,72.2,68.8,96,83,63,30.06,29.96,17,2,17,0.00
2013-10-6,78.3,74.8,71.1,73.8,71.7,69.6,96,90,85,29.98,29.90,3,0,3,0.00
2013-10-7,88.5,79.3,74.4,76.8,73.5,71.9,95,83,62,29.86,29.78,10,2,11,0.00
2013-10-8,89.5,79.2,74.1,77.0,73.2,70.0,96,83,56,29.93,29.80,11,1,11,0.01
2013-10-9,84.0,76.3,70.5,74.2,71.6,67.9,95,86,70,30.02,29.89,16,3,16,0.14
2013-10-10,82.7,74.6,66.1,72.2,67.9,63.8,96,80,64,30.04,29.97,14,2,15,0.00
2013-10-11,86.5,72.2,60.3,70.2,64.3,59.2,98,79,45,30.04,29.94,9,1,9,0.00
2013-10-12,87.2,74.9,64.5,70.6,66.2,61.3,97,77,44,30.04,29.96,11,1,12,0.00
2013-10-13,84.2,75.2,62.9,68.1,64.8,59.1,96,73,46,30.08,29.99,13,2,13,0.00
2013-10-14,83.3,74.5,66.2,72.4,68.2,64.6,96,82,59,30.03,29.92,15,2,17,0.00
2013-10-15,85.2,74.1,68.2,73.3,69.2,66.9,97,86,59,29.98,29.88,9,1,10,0.00
2013-10-16,86.5,74.7,67.9,74.2,69.6,65.6,97,85,53,29.97,29.89,10,1,11,0.00
2013-10-17,89.2,76.2,66.2,74.4,69.5,65.2,98,82,54,29.98,29.90,9,1,12,0.00
2013-10-18,87.3,76.6,67.7,74.6,71.1,66.5,98,84,61,29.99,29.90,12,1,14,0.00
2013-10-19,89.0,77.9,68.6,77.0,72.5,67.4,97,84,58,29.96,29.86,11,1,11,0.00
2013-10-20,88.4,79.0,72.7,77.0,74.2,71.2,96,86,64,29.96,29.86,13,2,14,0.00
2013-10-21,91.0,79.9,72.5,78.2,74.9,71.3,97,86,62,29.99,29.89,8,0,9,0.01
2013-10-22,91.0,80.2,74.7,77.0,74.6,72.3,94,84,57,29.96,29.80,15,1,15,0.02
2013-10-23,82.0,75.5,70.0,72.8,68.4,57.8,95,80,56,29.99,29.79,13,1,14,0.00
2013-10-24,75.2,68.7,63.5,63.3,58.3,51.4,90,70,62,30.14,29.98,12,2,13,0.00
2013-10-25,78.8,69.6,61.4,64.0,60.4,58.2,92,74,50,30.20,30.12,14,2,15,0.00
2013-10-26,80.7,68.6,58.3,63.0,58.7,52.7,95,73,39,30.18,30.08,12,1,12,0.00
2013-10-27,77.7,66.9,56.8,62.6,58.9,54.1,97,77,46,30.12,30.06,12,1,14,0.00
2013-10-28,81.3,71.1,60.7,66.9,62.7,58.3,93,76,56,30.17,30.07,14,2,14,0.00
2013-10-29,82.8,73.6,63.0,68.9,65.2,60.9,95,77,55,30.20,30.12,15,2,16,0.00
2013-10-30,83.2,75.5,66.6,71.8,67.4,64.8,95,77,59,30.21,30.10,12,2,15,0.00
2013-10-31,75.2,72.4,71.3,69.9,68.7,66.6,93,88,75,30.12,30.01,2,0,3,0.00
2013-11-1,89.2,79.0,71.4,70.5,68.7,67.3,87,72,52,29.91,29.85,8,1,10,0.00
2013-11-2,84.3,71.8,66.4,71.6,66.6,60.2,97,85,57,29.95,29.80,16,1,19,0.00
2013-11-3,77.1,68.9,60.8,61.4,56.6,47.8,90,68,37,30.08,29.93,18,3,19,0.00
2013-11-4,79.0,74.6,68.6,67.0,60.7,50.3,93,63,47,30.15,30.06,25,7,26,0.17
2013-11-5,82.3,76.4,69.5,71.3,68.5,64.8,91,77,62,30.14,30.06,26,6,26,0.14
2013-11-6,82.7,76.4,70.1,69.7,67.3,64.4,88,74,57,30.10,30.01,15,2,15,0.00
2013-11-7,80.8,73.0,66.0,72.6,68.7,63.9,97,87,71,30.04,29.94,9,1,10,0.00
2013-11-8,79.5,72.0,65.0,70.0,66.3,63.3,96,83,70,30.09,29.97,18,4,21,0.01
2013-11-9,79.2,74.1,66.5,67.7,66.1,64.2,93,77,64,30.17,30.07,18,4,19,0.00
2013-11-10,81.2,72.1,63.9,71.2,66.3,62.7,96,83,58,30.15,30.08,13,2,14,0.00
2013-11-11,80.5,72.9,66.7,70.6,67.4,64.8,96,84,65,30.15,30.07,14,2,14,0.00
2013-11-12,79.7,71.5,65.8,70.9,67.0,64.2,97,86,68,30.09,29.99,12,1,12,0.00
2013-11-13,69.0,66.8,65.6,65.2,56.9,47.9,89,71,52,30.28,30.03,24,6,27,0.00
2013-11-14,75.0,70.3,66.1,61.2,56.5,51.0,73,62,47,30.28,30.16,21,4,21,0.00
2013-11-15,80.1,73.6,68.0,69.2,64.1,57.2,85,73,56,30.18,30.07,9,1,10,0.00
2013-11-16,81.6,74.1,68.8,72.1,68.3,65.7,93,83,62,30.12,30.02,7,0,9,0.06
2013-11-17,84.3,76.8,70.1,72.2,70.9,67.9,93,83,65,30.08,30.00,11,1,13,0.00
2013-11-18,86.8,75.9,67.1,72.7,69.8,65.9,97,83,58,30.02,29.91,8,0,9,0.00
2013-11-19,78.6,72.8,68.5,70.4,67.7,65.4,96,85,69,29.95,29.86,10,1,13,0.00
2013-11-20,78.8,72.5,67.4,72.4,69.6,65.5,96,91,80,30.09,29.94,15,2,18,3.50
2013-11-21,79.0,74.7,71.9,72.9,70.7,69.4,95,87,77,30.17,30.07,13,2,16,0.89
2013-11-22,80.7,75.9,70.7,71.2,68.1,64.9,87,77,62,30.19,30.10,16,2,18,0.00
2013-11-23,81.3,71.9,65.0,69.8,66.2,63.2,95,83,63,30.10,29.99,11,1,11,0.00
2013-11-24,74.7,68.2,64.4,66.1,62.9,55.5,96,84,65,30.22,30.00,22,4,22,0.02
2013-11-25,74.8,70.5,67.7,66.9,60.3,54.9,90,70,56,30.24,30.07,22,5,22,0.04
2013-11-26,83.5,75.7,69.5,74.5,70.8,66.2,95,85,69,30.07,29.76,13,1,16,0.28
2013-11-27,73.5,66.6,48.2,72.3,60.5,44.1,96,82,59,30.16,29.71,14,2,16,0.09
2013-11-28,67.5,54.1,41.1,58.0,48.2,37.1,91,81,64,30.30,30.16,15,2,15,0.00
2013-11-29,72.7,62.9,55.0,62.2,57.3,51.8,93,83,60,30.32,30.25,13,2,15,0.00
2013-11-30,76.8,67.7,60.6,67.7,63.2,58.7,97,86,63,30.27,30.15,20,3,21,0.25
2013-12-1,68.4,65.5,63.3,67.2,64.4,62.0,97,96,94,30.15,29.96,9,1,9,0.51
2013-12-2,71.5,64.3,57.5,64.6,61.4,56.1,98,91,71,29.96,29.81,8,0,9,0.00
2013-12-3,78.2,66.4,57.3,64.8,60.7,56.3,97,84,55,30.00,29.88,8,0,8,0.00
2013-12-4,83.3,70.3,59.5,70.6,64.4,58.2,97,83,52,30.09,29.98,8,0,8,0.00
2013-12-5,81.0,70.9,60.3,71.3,66.6,59.1,97,87,69,30.18,30.08,12,0,12,0.00
2013-12-6,81.0,72.9,66.9,73.1,69.1,65.4,96,88,71,30.19,30.10,6,0,6,0.13
2013-12-7,81.7,71.1,61.3,71.9,66.7,60.2,98,87,68,30.23,30.15,7,0,7,0.01
2013-12-8,82.4,75.8,67.8,71.3,68.8,66.0,95,80,65,30.23,30.12,9,1,10,0.00
2013-12-9,84.3,73.0,65.0,72.2,67.3,63.8,97,84,58,30.19,30.09,9,0,9,0.00
2013-12-10,84.8,72.7,60.8,72.5,65.3,59.3,97,79,52,30.17,30.06,11,1,12,0.00
2013-12-11,80.5,72.1,62.5,71.3,67.3,60.1,94,85,70,30.23,30.14,11,2,12,0.00
2013-12-12,68.9,64.2,54.4,65.5,57.5,48.9,95,80,56,30.28,30.17,19,3,20,0.00
2013-12-13,73.9,63.5,50.6,63.0,55.9,49.0,95,78,57,30.25,30.12,15,2,16,0.00
2013-12-14,79.5,74.0,70.0,73.4,69.1,63.0,91,85,76,30.13,29.95,7,1,11,0.09
2013-12-15,75.3,69.8,63.6,72.9,66.2,58.9,95,89,78,30.09,29.90,12,1,12,0.22
2013-12-16,66.0,59.2,50.4,59.0,54.2,48.1,92,84,66,30.18,30.08,13,2,15,0.00
2013-12-17,72.2,66.8,51.6,60.6,57.9,50.2,95,74,62,30.22,30.13,12,2,12,0.00
2013-12-18,62.4,53.2,51.3,53.3,50.0,49.0,93,89,72,30.26,30.22,1,0,7,0.01
2013-12-19,74.6,60.3,46.7,60.7,53.9,44.9,95,81,57,30.27,30.18,15,1,18,0.00
2013-12-20,80.8,66.6,52.4,66.3,60.0,51.3,98,81,52,30.21,30.11,7,0,10,0.00
2013-12-21,81.8,72.5,64.7,74.1,69.2,62.8,97,90,77,30.15,30.05,10,1,11,0.01
2013-12-22,85.5,74.5,66.4,74.0,69.9,65.5,98,87,59,30.15,30.07,10,1,13,0.01
2013-12-23,85.6,75.3,66.8,74.1,69.8,65.6,97,84,58,30.17,30.08,11,1,12,0.00
2013-12-24,72.0,64.1,53.9,68.6,59.0,42.2,95,84,46,30.22,30.09,18,2,18,0.06
2013-12-25,73.2,63.5,49.9,60.1,55.4,48.0,94,76,61,30.22,30.14,17,2,19,0.00
2013-12-26,76.5,66.5,57.2,66.5,61.5,55.2,94,85,68,30.20,30.08,12,2,12,0.00
2013-12-27,76.3,69.8,65.8,69.4,66.3,63.1,95,89,75,30.23,30.14,11,2,12,0.00
2013-12-28,77.0,72.0,67.1,71.5,68.8,65.6,96,90,79,30.20,30.03,11,1,12,0.18
2013-12-29,77.5,73.7,70.3,74.1,71.1,68.2,95,92,88,30.04,29.90,11,1,15,0.22
2013-12-30,70.4,64.3,58.8,68.3,61.3,55.9,95,90,84,30.19,29.98,9,1,9,0.00
2013-12-31,68.5,64.2,60.1,60.5,57.5,55.8,90,79,69,30.29,30.15,15,2,16,0.00
2014-1-1,69.1,66.3,63.6,67.9,64.4,60.0,97,94,84,30.23,30.04,9,1,9,0.18
2014-1-2,83.7,72.3,65.8,72.2,67.7,64.9,98,87,62,30.04,29.81,18,2,20,0.30